Location: Prairie State College
(41.5244°N, 87.6382°W)
Time: 21:55:29
(UTC-06:00)

MSX - Visible Passes

Search period start: 05 March 2015 00:00
Search period end: 15 March 2015 01:00
Orbit: 894 x 907 km, 98.7° (Epoch: 27 February)

Date Brightness Start Highest point End Pass type
(mag) Time Alt. Az. Time Alt. Az. Time Alt. Az.
05 Mar 3.8 19:19:04 10° SSE 19:24:49 85° WSW 19:30:36 10° NNW visible
05 Mar 6.7 21:05:54 10° WSW 21:07:32 11° W 21:08:46 10° WNW visible
06 Mar 3.9 19:21:52 10° S 19:27:37 80° WSW 19:33:24 10° NNW visible
06 Mar 6.8 21:09:52 10° W 21:10:25 10° W 21:10:30 10° W visible
07 Mar 4.0 19:24:41 10° S 19:30:26 76° WSW 19:36:12 10° NNW visible
08 Mar 4.0 20:27:31 10° S 20:33:15 72° WSW 20:39:00 10° NNW visible
09 Mar 4.1 20:30:21 10° S 20:36:03 68° WSW 20:41:48 10° NNW visible
10 Mar 4.2 20:33:11 10° S 20:38:52 64° WSW 20:44:35 10° NNW visible
11 Mar 4.3 20:36:01 10° S 20:41:41 61° W 20:47:22 10° NNW visible
12 Mar 4.4 20:38:51 10° S 20:44:30 57° W 20:50:09 10° NNW visible
13 Mar 4.5 20:41:42 10° S 20:47:19 54° W 20:52:56 10° NNW visible
14 Mar 4.6 20:44:33 10° S 20:50:08 51° W 20:55:42 10° NNW visible
